Location: ??? ?????
(30.6482°N, 60.5850°E)
Time: 22:14:57
(UTC+00:00)

CZ-2D R/B - Pass Details

Date: 09 April 2020
Orbit: 523 x 537 km, 97.4° (Epoch: 24 May)

Event Time Altitude Azimuth Distance (km) Brightness Sun altitude
Rises 14:56:53 0° 177° (S) 2,642 6.6 -8.2°
Reaches altitude 10° 14:59:01 10° 181° (S) 1,756 5.8 -8.6°
Maximum altitude 15:02:43 55° 260° (W) 630 4.0 -9.4°
Drops below altitude 10° 15:06:28 10° 339° (NNW) 1,763 6.4 -10.2°
Sets 15:08:36 0° 344° (NNW) 2,654 7.3 -10.6°
